QPF
0.01 0.01 0.01 0.01 0.01 0.01 0.01 0.01 0.01 0.02 0.03 0.03 0.04 0.06 0.05 0.03 0.02 0.02 0.02 0.02 0.02 0.03 0.04 0.04 0.04 0.03 0.04 0.04 0.04 0.03 0.03 0.04 0.05 0.03 0.02 0.02 0.03 0.06 0.07 0.06 0.05 0.04 0.03
0.01 0.01 0.01 0.01 0.01 0.01 0.01 0.01 0.01 0.01 0.02 0.03 0.04 0.04 0.07 0.07 0.05 0.04 0.03 0.03 0.03 0.03 0.03 0.04 0.05 0.04 0.04 0.04 0.05 0.05 0.04 0.05 0.05 0.04 0.03 0.03 0.03 0.04 0.07 0.08 0.08 0.07 0.06
0.00 0.00 0.00 0.01 0.01 0.01 0.01 0.01 0.01 0.01 0.01 0.01 0.02 0.04 0.05 0.06 0.06 0.05 0.05 0.05 0.05 0.05 0.04 0.04 0.05 0.05 0.05 0.05 0.05 0.06 0.05 0.05 0.05 0.05 0.04 0.04 0.04 0.05 0.06 0.07 0.08 0.08 0.07
0.00 0.00 0.00 0.01 0.01 0.01 0.01 0.01 0.01 0.01 0.01 0.01 0.01 0.01 0.02 0.03 0.04 0.06 0.07 0.07 0.07 0.07 0.07 0.06 0.06 0.07 0.08 0.07 0.07 0.06 0.06 0.07 0.06 0.06 0.05 0.05 0.05 0.07 0.07 0.07 0.07 0.07 0.07
0.00 0.00 0.00 0.00 0.01 0.01 0.01 0.00 0.00 0.01 0.01 0.01 0.01 0.01 0.01 0.02 0.02 0.03 0.04 0.06 0.07 0.07 0.08 0.09 0.08 0.09 0.10 0.10 0.09 0.07 0.06 0.06 0.06 0.06 0.07 0.07 0.07 0.07 0.08 0.07 0.07 0.07 0.07
0.01 0.01 0.01 0.01 0.01 0.01 0.01 0.01 0.01 0.01 0.01 0.01 0.02 0.02 0.02 0.02 0.02 0.03 0.03 0.03 0.04 0.05 0.06 0.07 0.07 0.07 0.07 0.06 0.06 0.07 0.07 0.07 0.06 0.07 0.07 0.07 0.06 0.06 0.07 0.08 0.08 0.08 0.08
0.01 0.01 0.01 0.01 0.01 0.01 0.01 0.01 0.01 0.01 0.01 0.02 0.02 0.02 0.03 0.03 0.03 0.03 0.03 0.02 0.02 0.03 0.03 0.03 0.04 0.05 0.05 0.05 0.05 0.05 0.06 0.07 0.08 0.08 0.07 0.07 0.06 0.05 0.06 0.07 0.08 0.08 0.08
0.00 0.00 0.00 0.00 0.01 0.01 0.01 0.01 0.01 0.01 0.01 0.01 0.01 0.02 0.02 0.03 0.03 0.03 0.03 0.03 0.02 0.02 0.02 0.02 0.03 0.03 0.03 0.04 0.04 0.04 0.04 0.04 0.05 0.05 0.06 0.05 0.05 0.04 0.05 0.05 0.06 0.07 0.08
0.00 0.00 0.00 0.00 0.00 0.01 0.01 0.01 0.01 0.01 0.01 0.01 0.01 0.01 0.01 0.02 0.03 0.03 0.02 0.02 0.02 0.01 0.01 0.01 0.02 0.02 0.03 0.03 0.03 0.03 0.03 0.03 0.03 0.04 0.05 0.06 0.06 0.06 0.06 0.06 0.06 0.07 0.08
0.00 0.00 0.00 0.00 0.00 0.00 0.01 0.01 0.01 0.01 0.01 0.01 0.01 0.01 0.01 0.01 0.01 0.02 0.02 0.02 0.02 0.01 0.01 0.01 0.01 0.01 0.02 0.02 0.02 0.02 0.02 0.02 0.02 0.02 0.02 0.03 0.03 0.04 0.05 0.05 0.06 0.06 0.06
0.00 0.00 0.00 0.00 0.00 0.00 0.00 0.01 0.01 0.01 0.01 0.01 0.01 0.01 0.01 0.00 0.01 0.01 0.01 0.02 0.02 0.01 0.01 0.01 0.00 0.01 0.01 0.02 0.02 0.02 0.02 0.01 0.01 0.01 0.01 0.01 0.01 0.02 0.02 0.02 0.03 0.04 0.05
0.00 0.00 0.00 0.00 0.00 0.00 0.00 0.00 0.00 0.00 0.01 0.00 0.00 0.00 0.01 0.01 0.01 0.01 0.01 0.01 0.02 0.02 0.01 0.01 0.01 0.01 0.01 0.01 0.01 0.01 0.01 0.01 0.01 0.01 0.01 0.01 0.01 0.01 0.01 0.01 0.02 0.02 0.03
0.00 0.00 0.00 0.00 0.00 0.00 0.00 0.00 0.00 0.01 0.01 0.01 0.00 0.00 0.01 0.01 0.01 0.01 0.01 0.01 0.01 0.01 0.01 0.01 0.01 0.01 0.01 0.01 0.01 0.01 0.01 0.01 0.01 0.01 0.01 0.01 0.01 0.01 0.02 0.02 0.02 0.02 0.02
0.00 0.00 0.00 0.00 0.00 0.00 0.00 0.01 0.01 0.01 0.01 0.01 0.01 0.01 0.01 0.01 0.01 0.01 0.01 0.00 0.00 0.01 0.01 0.01 0.01 0.01 0.01 0.01 0.01 0.01 0.01 0.01 0.02 0.02 0.01 0.01 0.01 0.02 0.03 0.03 0.03 0.03 0.03
0.00 0.00 0.00 0.00 0.00 0.00 0.00 0.01 0.01 0.01 0.01 0.02 0.02 0.02 0.02 0.02 0.01 0.01 0.01 0.01 0.01 0.01 0.01 0.01 0.01 0.01 0.01 0.01 0.01 0.01 0.01 0.01 0.02 0.02 0.02 0.02 0.02 0.02 0.03 0.03 0.04 0.03 0.03
0.00 0.01 0.01 0.01 0.01 0.00 0.00 0.00 0.00 0.00 0.01 0.01 0.01 0.02 0.02 0.02 0.02 0.02 0.02 0.02 0.02 0.02 0.02 0.03 0.02 0.02 0.02 0.01 0.01 0.01 0.01 0.02 0.02 0.02 0.02 0.02 0.03 0.03 0.03 0.03 0.04 0.05 0.05
0.01 0.01 0.01 0.01 0.01 0.01 0.01 0.00 0.00 0.00 0.00 0.00 0.01 0.01 0.01 0.01 0.01 0.01 0.01 0.01 0.01 0.01 0.02 0.02 0.02 0.02 0.01 0.01 0.02 0.02 0.02 0.02 0.02 0.02 0.03 0.03 0.03 0.04 0.04 0.04 0.04 0.04 0.05
0.01 0.00 0.00 0.01 0.01 0.01 0.01 0.01 0.01 0.01 0.01 0.00 0.00 0.00 0.01 0.01 0.01 0.01 0.01 0.01 0.01 0.01 0.02 0.01 0.01 0.01 0.01 0.01 0.01 0.02 0.02 0.02 0.02 0.02 0.02 0.03 0.03 0.04 0.04 0.03 0.03 0.03 0.04
0.00 0.00 0.01 0.01 0.01 0.01 0.01 0.01 0.01 0.01 0.01 0.01 0.00 0.00 0.00 0.01 0.01 0.01 0.01 0.01 0.01 0.01 0.01 0.01 0.01 0.01 0.01 0.01 0.01 0.02 0.02 0.02 0.02 0.02 0.02 0.02 0.03 0.03 0.03 0.03 0.02 0.03 0.04
0.01 0.01 0.01 0.01 0.01 0.01 0.01 0.01 0.01 0.01 0.01 0.01 0.01 0.01 0.01 0.01 0.01 0.01 0.01 0.01 0.01 0.01 0.01 0.01 0.01 0.01 0.01 0.01 0.01 0.02 0.02 0.02 0.02 0.02 0.02 0.02 0.02 0.03 0.03 0.02 0.03 0.03 0.04
0.01 0.01 0.01 0.01 0.01 0.01 0.01 0.01 0.01 0.01 0.01 0.01 0.01 0.01 0.02 0.02 0.01 0.01 0.01 0.01 0.01 0.01 0.01 0.01 0.01 0.01 0.01 0.01 0.01 0.01 0.02 0.02 0.02 0.02 0.02 0.02 0.02 0.02 0.02 0.02 0.03 0.03 0.03
0.01 0.01 0.01 0.01 0.01 0.01 0.01 0.01 0.01 0.01 0.01 0.01 0.01 0.01 0.01 0.01 0.01 0.01 0.01 0.01 0.01 0.01 0.02 0.02 0.02 0.02 0.02 0.01 0.01 0.01 0.01 0.02 0.01 0.02 0.02 0.02 0.02 0.02 0.02 0.02 0.02 0.03 0.03
0.01 0.01 0.01 0.01 0.01 0.01 0.01 0.01 0.01 0.01 0.01 0.01 0.01 0.01 0.01 0.01 0.01 0.02 0.02 0.02 0.02 0.01 0.01 0.01 0.01 0.01 0.01 0.01 0.01 0.01 0.02 0.02 0.02 0.02 0.02 0.02 0.02 0.02 0.02 0.03 0.03 0.03 0.03
0.01 0.01 0.01 0.01 0.01 0.01 0.01 0.01 0.01 0.01 0.01 0.01 0.01 0.01 0.01 0.01 0.01 0.01 0.01 0.02 0.01 0.01 0.01 0.01 0.01 0.01 0.01 0.01 0.01 0.01 0.02 0.02 0.02 0.02 0.02 0.02 0.02 0.02 0.02 0.02 0.03 0.03 0.02
0.01 0.01 0.01 0.01 0.01 0.01 0.01 0.01 0.01 0.01 0.01 0.01 0.01 0.01 0.01 0.01 0.01 0.01 0.01 0.01 0.01 0.01 0.01 0.01 0.01 0.01 0.01 0.01 0.01 0.01 0.02 0.02 0.02 0.02 0.03 0.03 0.02 0.02 0.02 0.02 0.02 0.02 0.02
0.01 0.01 0.01 0.01 0.01 0.01 0.01 0.01 0.01 0.01 0.01 0.01 0.01 0.01 0.01 0.01 0.01 0.01 0.01 0.01 0.01 0.01 0.01 0.01 0.01 0.01 0.01 0.01 0.01 0.01 0.01 0.02 0.02 0.02 0.03 0.03 0.03 0.02 0.02 0.02 0.02 0.02 0.02
MSLP
1016.83 1016.78 1016.81 1016.88 1016.96 1017.02 1017.05 1017.08 1017.11 1017.15 1017.22 1017.31 1017.39 1017.46 1017.47 1017.40 1017.26 1017.03 1016.74 1016.41 1016.08 1015.76 1015.48 1015.25 1015.06 1014.91 1014.77 1014.63 1014.48 1014.32 1014.15 1013.96 1013.78 1013.60 1013.44 1013.30 1013.16 1013.04 1012.93 1012.84 1012.79 1012.80 1012.89
1017.12 1016.99 1016.93 1016.92 1016.93 1016.93 1016.94 1016.95 1016.98 1017.04 1017.13 1017.24 1017.35 1017.44 1017.48 1017.45 1017.34 1017.16 1016.90 1016.61 1016.29 1015.98 1015.69 1015.42 1015.19 1014.99 1014.80 1014.62 1014.44 1014.25 1014.07 1013.89 1013.72 1013.56 1013.40 1013.24 1013.08 1012.91 1012.74 1012.58 1012.44 1012.34 1012.32
1017.33 1017.12 1016.98 1016.90 1016.84 1016.80 1016.78 1016.78 1016.82 1016.89 1016.99 1017.11 1017.24 1017.34 1017.40 1017.40 1017.33 1017.18 1016.97 1016.71 1016.42 1016.13 1015.84 1015.57 1015.31 1015.07 1014.84 1014.61 1014.40 1014.19 1014.00 1013.82 1013.65 1013.49 1013.33 1013.17 1012.99 1012.78 1012.56 1012.33 1012.10 1011.91 1011.78
1017.46 1017.19 1016.99 1016.84 1016.74 1016.66 1016.62 1016.61 1016.65 1016.72 1016.82 1016.95 1017.07 1017.18 1017.25 1017.26 1017.21 1017.09 1016.92 1016.70 1016.45 1016.19 1015.92 1015.64 1015.37 1015.10 1014.83 1014.58 1014.33 1014.09 1013.87 1013.68 1013.50 1013.35 1013.19 1013.02 1012.83 1012.61 1012.35 1012.06 1011.77 1011.50 1011.28
1017.55 1017.24 1017.00 1016.80 1016.66 1016.55 1016.49 1016.47 1016.50 1016.56 1016.65 1016.76 1016.87 1016.96 1017.02 1017.03 1016.99 1016.89 1016.75 1016.57 1016.36 1016.13 1015.88 1015.62 1015.34 1015.05 1014.75 1014.45 1014.16 1013.89 1013.64 1013.43 1013.24 1013.08 1012.93 1012.76 1012.58 1012.35 1012.08 1011.77 1011.45 1011.12 1010.85
1017.60 1017.28 1017.01 1016.78 1016.61 1016.48 1016.40 1016.36 1016.37 1016.41 1016.48 1016.56 1016.63 1016.69 1016.72 1016.71 1016.66 1016.57 1016.46 1016.31 1016.14 1015.94 1015.72 1015.47 1015.19 1014.88 1014.55 1014.22 1013.89 1013.57 1013.29 1013.05 1012.85 1012.69 1012.54 1012.39 1012.22 1012.02 1011.77 1011.47 1011.15 1010.82 1010.52
1017.62 1017.29 1017.01 1016.76 1016.57 1016.42 1016.31 1016.25 1016.24 1016.25 1016.28 1016.31 1016.34 1016.35 1016.33 1016.29 1016.23 1016.14 1016.04 1015.92 1015.78 1015.61 1015.41 1015.18 1014.90 1014.58 1014.23 1013.86 1013.49 1013.14 1012.82 1012.56 1012.35 1012.18 1012.05 1011.93 1011.80 1011.64 1011.44 1011.19 1010.91 1010.62 1010.34
1017.56 1017.24 1016.95 1016.69 1016.48 1016.31 1016.18 1016.09 1016.04 1016.02 1016.00 1015.99 1015.96 1015.92 1015.86 1015.79 1015.70 1015.61 1015.51 1015.41 1015.29 1015.15 1014.98 1014.76 1014.49 1014.16 1013.79 1013.40 1012.99 1012.61 1012.27 1011.99 1011.78 1011.62 1011.52 1011.44 1011.37 1011.27 1011.14 1010.96 1010.75 1010.52 1010.30
1017.37 1017.05 1016.76 1016.49 1016.26 1016.07 1015.92 1015.81 1015.73 1015.67 1015.61 1015.55 1015.48 1015.39 1015.29 1015.19 1015.08 1014.98 1014.89 1014.80 1014.71 1014.60 1014.45 1014.25 1013.98 1013.66 1013.28 1012.87 1012.45 1012.05 1011.70 1011.42 1011.21 1011.08 1011.01 1010.98 1010.97 1010.94 1010.89 1010.79 1010.67 1010.51 1010.36
1017.01 1016.70 1016.40 1016.12 1015.87 1015.66 1015.49 1015.36 1015.25 1015.16 1015.07 1014.98 1014.87 1014.75 1014.62 1014.50 1014.38 1014.28 1014.20 1014.13 1014.06 1013.97 1013.85 1013.66 1013.42 1013.11 1012.73 1012.33 1011.91 1011.51 1011.16 1010.89 1010.70 1010.60 1010.57 1010.59 1010.63 1010.68 1010.70 1010.68 1010.63 1010.56 1010.48
1016.47 1016.15 1015.84 1015.54 1015.28 1015.05 1014.86 1014.71 1014.59 1014.48 1014.38 1014.26 1014.14 1014.01 1013.88 1013.75 1013.63 1013.54 1013.47 1013.42 1013.37 1013.31 1013.21 1013.05 1012.83 1012.53 1012.18 1011.79 1011.39 1011.01 1010.68 1010.43 1010.27 1010.21 1010.22 1010.28 1010.38 1010.48 1010.56 1010.60 1010.61 1010.60 1010.58
1015.77 1015.43 1015.10 1014.79 1014.51 1014.27 1014.07 1013.91 1013.78 1013.67 1013.56 1013.45 1013.33 1013.20 1013.07 1012.95 1012.85 1012.77 1012.72 1012.69 1012.66 1012.62 1012.55 1012.42 1012.22 1011.96 1011.64 1011.28 1010.91 1010.56 1010.27 1010.06 1009.93 1009.90 1009.95 1010.06 1010.19 1010.33 1010.45 1010.53 1010.58 1010.60 1010.61
1014.96 1014.60 1014.26 1013.93 1013.63 1013.38 1013.18 1013.02 1012.89 1012.78 1012.68 1012.58 1012.48 1012.36 1012.25 1012.14 1012.05 1011.99 1011.96 1011.95 1011.94 1011.93 1011.88 1011.77 1011.61 1011.38 1011.10 1010.78 1010.45 1010.15 1009.91 1009.74 1009.65 1009.66 1009.74 1009.88 1010.04 1010.21 1010.35 1010.45 1010.51 1010.54 1010.56
1014.10 1013.73 1013.37 1013.03 1012.73 1012.48 1012.28 1012.12 1012.00 1011.90 1011.82 1011.73 1011.64 1011.54 1011.44 1011.35 1011.27 1011.23 1011.21 1011.21 1011.22 1011.22 1011.19 1011.12 1010.98 1010.79 1010.55 1010.28 1010.00 1009.75 1009.56 1009.43 1009.39 1009.44 1009.55 1009.72 1009.91 1010.09 1010.24 1010.34 1010.41 1010.44 1010.45
1013.26 1012.89 1012.52 1012.19 1011.90 1011.65 1011.46 1011.31 1011.19 1011.10 1011.02 1010.94 1010.85 1010.76 1010.67 1010.58 1010.52 1010.48 1010.47 1010.48 1010.50 1010.51 1010.50 1010.44 1010.34 1010.18 1009.98 1009.76 1009.53 1009.33 1009.19 1009.11 1009.12 1009.20 1009.35 1009.55 1009.75 1009.95 1010.11 1010.23 1010.29 1010.32 1010.33
1012.46 1012.10 1011.76 1011.44 1011.16 1010.93 1010.75 1010.61 1010.50 1010.41 1010.32 1010.24 1010.14 1010.04 1009.94 1009.86 1009.79 1009.75 1009.73 1009.74 1009.77 1009.79 1009.79 1009.75 1009.67 1009.55 1009.38 1009.20 1009.02 1008.88 1008.78 1008.75 1008.80 1008.92 1009.11 1009.33 1009.57 1009.79 1009.98 1010.11 1010.19 1010.23 1010.24
1011.71 1011.38 1011.06 1010.78 1010.53 1010.32 1010.15 1010.02 1009.91 1009.80 1009.71 1009.60 1009.49 1009.37 1009.26 1009.16 1009.08 1009.03 1009.01 1009.02 1009.04 1009.06 1009.07 1009.05 1008.99 1008.89 1008.77 1008.62 1008.48 1008.38 1008.32 1008.34 1008.43 1008.59 1008.81 1009.08 1009.35 1009.61 1009.84 1010.01 1010.12 1010.19 1010.23
1010.96 1010.67 1010.40 1010.15 1009.94 1009.76 1009.60 1009.47 1009.35 1009.24 1009.12 1008.99 1008.86 1008.72 1008.59 1008.47 1008.38 1008.33 1008.30 1008.31 1008.33 1008.36 1008.37 1008.36 1008.32 1008.24 1008.14 1008.02 1007.91 1007.84 1007.82 1007.87 1008.00 1008.20 1008.46 1008.77 1009.09 1009.40 1009.68 1009.91 1010.08 1010.20 1010.29
1010.17 1009.92 1009.69 1009.49 1009.31 1009.15 1009.01 1008.89 1008.76 1008.64 1008.50 1008.35 1008.20 1008.05 1007.90 1007.78 1007.69 1007.63 1007.61 1007.62 1007.64 1007.68 1007.70 1007.69 1007.66 1007.59 1007.51 1007.41 1007.32 1007.27 1007.28 1007.35 1007.51 1007.74 1008.04 1008.39 1008.77 1009.14 1009.48 1009.78 1010.03 1010.23 1010.39
1009.30 1009.08 1008.89 1008.72 1008.57 1008.44 1008.31 1008.19 1008.07 1007.93 1007.79 1007.64 1007.48 1007.32 1007.18 1007.07 1006.99 1006.94 1006.93 1006.95 1006.99 1007.02 1007.05 1007.05 1007.02 1006.95 1006.87 1006.78 1006.70 1006.66 1006.68 1006.78 1006.95 1007.22 1007.55 1007.95 1008.37 1008.81 1009.22 1009.60 1009.94 1010.22 1010.46
1008.33 1008.13 1007.96 1007.81 1007.69 1007.57 1007.46 1007.35 1007.23 1007.10 1006.96 1006.82 1006.68 1006.55 1006.43 1006.35 1006.29 1006.28 1006.29 1006.32 1006.36 1006.40 1006.42 1006.42 1006.38 1006.31 1006.22 1006.12 1006.04 1006.01 1006.03 1006.14 1006.33 1006.62 1006.99 1007.42 1007.90 1008.39 1008.88 1009.34 1009.76 1010.13 1010.46
1007.30 1007.10 1006.93 1006.79 1006.67 1006.56 1006.46 1006.36 1006.26 1006.15 1006.04 1005.93 1005.83 1005.74 1005.67 1005.63 1005.62 1005.63 1005.67 1005.72 1005.77 1005.80 1005.81 1005.78 1005.72 1005.63 1005.52 1005.41 1005.32 1005.29 1005.32 1005.43 1005.65 1005.95 1006.35 1006.82 1007.35 1007.90 1008.45 1008.98 1009.48 1009.94 1010.35
1006.26 1006.04 1005.85 1005.70 1005.58 1005.47 1005.38 1005.30 1005.22 1005.15 1005.08 1005.02 1004.97 1004.95 1004.94 1004.95 1004.99 1005.04 1005.10 1005.15 1005.19 1005.20 1005.18 1005.12 1005.02 1004.90 1004.77 1004.64 1004.54 1004.51 1004.54 1004.68 1004.91 1005.24 1005.68 1006.19 1006.75 1007.35 1007.96 1008.55 1009.12 1009.65 1010.13
1005.29 1005.02 1004.81 1004.63 1004.50 1004.39 1004.31 1004.24 1004.20 1004.17 1004.15 1004.16 1004.18 1004.22 1004.28 1004.35 1004.43 1004.51 1004.57 1004.62 1004.63 1004.61 1004.55 1004.44 1004.30 1004.13 1003.97 1003.82 1003.73 1003.69 1003.75 1003.91 1004.17 1004.54 1005.01 1005.57 1006.17 1006.82 1007.47 1008.12 1008.74 1009.32 1009.87
1004.42 1004.11 1003.86 1003.66 1003.51 1003.40 1003.33 1003.29 1003.27 1003.29 1003.34 1003.41 1003.50 1003.60 1003.72 1003.84 1003.95 1004.04 1004.11 1004.13 1004.11 1004.04 1003.92 1003.76 1003.57 1003.37 1003.18 1003.02 1002.93 1002.92 1003.00 1003.20 1003.51 1003.93 1004.44 1005.04 1005.69 1006.38 1007.07 1007.76 1008.42 1009.04 1009.63
1003.68 1003.34 1003.05 1002.83 1002.67 1002.56 1002.49 1002.48 1002.50 1002.57 1002.67 1002.80 1002.95 1003.12 1003.28 1003.43 1003.56 1003.66 1003.70 1003.70 1003.63 1003.51 1003.34 1003.13 1002.90 1002.67 1002.47 1002.32 1002.25 1002.27 1002.40 1002.64 1003.01 1003.48 1004.04 1004.68 1005.38 1006.10 1006.82 1007.53 1008.22 1008.87 1009.49
Thickness
5469 5471 5473 5475 5476 5479 5481 5483 5484 5486 5487 5490 5492 5494 5495 5496 5496 5496 5497 5498 5499 5499 5498 5499 5499 5499 5499 5498 5497 5497 5497 5497 5500 5505 5505 5505 5506 5507 5509 5511 5514 5516 5518
5458 5459 5461 5462 5464 5466 5468 5470 5472 5473 5475 5476 5479 5480 5481 5483 5483 5484 5485 5486 5486 5487 5487 5487 5487 5488 5488 5487 5487 5487 5487 5487 5488 5492 5493 5493 5494 5495 5497 5499 5502 5504 5506
5446 5447 5449 5450 5452 5453 5455 5457 5459 5461 5462 5464 5465 5467 5468 5469 5470 5471 5472 5473 5474 5475 5475 5475 5476 5476 5477 5477 5477 5476 5476 5476 5476 5478 5482 5481 5481 5483 5485 5487 5489 5491 5494
5434 5436 5437 5438 5440 5441 5443 5445 5446 5448 5449 5451 5452 5453 5454 5456 5457 5458 5458 5459 5461 5462 5462 5463 5464 5464 5465 5465 5466 5466 5465 5465 5465 5466 5468 5469 5469 5470 5471 5473 5476 5479 5482
5423 5424 5426 5427 5428 5429 5431 5432 5433 5435 5436 5438 5439 5440 5441 5442 5443 5444 5445 5446 5447 5449 5449 5450 5451 5452 5454 5454 5455 5455 5454 5454 5454 5455 5457 5458 5459 5458 5460 5461 5464 5467 5471
5412 5413 5415 5416 5417 5417 5418 5419 5421 5422 5423 5424 5425 5427 5428 5429 5431 5432 5433 5433 5434 5436 5437 5439 5440 5441 5443 5444 5444 5445 5444 5443 5443 5444 5446 5447 5449 5449 5449 5449 5451 5453 5459
5401 5402 5404 5404 5405 5405 5407 5407 5408 5409 5411 5412 5413 5414 5415 5416 5418 5419 5420 5420 5422 5423 5424 5426 5428 5430 5431 5431 5432 5433 5433 5434 5434 5434 5435 5438 5438 5439 5438 5438 5439 5441 5445
5391 5392 5393 5393 5394 5394 5395 5396 5397 5397 5398 5399 5400 5401 5402 5404 5406 5407 5408 5408 5410 5411 5413 5414 5416 5418 5419 5420 5420 5421 5421 5422 5423 5424 5425 5427 5427 5428 5427 5428 5429 5430 5432
5382 5382 5383 5383 5383 5384 5384 5384 5385 5386 5387 5387 5388 5389 5390 5392 5394 5395 5396 5396 5398 5400 5402 5403 5405 5407 5409 5410 5410 5410 5411 5411 5412 5413 5414 5415 5416 5416 5416 5416 5417 5418 5421
5373 5373 5373 5373 5374 5374 5374 5374 5374 5375 5375 5376 5377 5377 5378 5380 5383 5385 5385 5386 5388 5390 5392 5393 5395 5397 5399 5399 5398 5399 5400 5401 5401 5401 5402 5402 5403 5403 5404 5404 5406 5406 5408
5365 5365 5365 5364 5364 5364 5365 5365 5364 5364 5364 5364 5365 5366 5367 5369 5372 5374 5375 5375 5377 5379 5381 5383 5385 5387 5389 5389 5389 5389 5390 5391 5390 5390 5390 5390 5391 5392 5393 5393 5394 5395 5396
5357 5357 5356 5356 5356 5356 5356 5355 5355 5354 5354 5354 5355 5356 5357 5359 5361 5363 5365 5366 5367 5368 5370 5372 5375 5377 5378 5379 5379 5380 5380 5380 5380 5379 5379 5380 5380 5381 5381 5382 5383 5384 5386
5349 5349 5349 5349 5348 5348 5347 5346 5346 5345 5345 5345 5346 5347 5348 5349 5350 5353 5355 5357 5358 5359 5360 5363 5365 5366 5368 5368 5369 5369 5369 5369 5369 5369 5369 5370 5370 5371 5371 5371 5372 5374 5375
5341 5341 5342 5341 5341 5340 5340 5339 5338 5337 5336 5337 5337 5337 5338 5339 5341 5343 5344 5346 5348 5349 5350 5352 5354 5356 5356 5357 5357 5358 5358 5358 5358 5359 5359 5359 5360 5360 5361 5362 5363 5365 5366
5334 5334 5334 5334 5333 5333 5332 5331 5331 5330 5329 5329 5329 5329 5329 5331 5334 5335 5336 5338 5339 5340 5341 5342 5343 5344 5345 5346 5347 5347 5348 5348 5349 5350 5350 5350 5351 5352 5353 5354 5355 5356 5356
5327 5327 5326 5326 5325 5325 5324 5324 5324 5323 5323 5323 5323 5323 5324 5325 5327 5328 5329 5330 5331 5331 5331 5332 5333 5334 5335 5336 5337 5338 5339 5339 5340 5341 5341 5342 5343 5344 5345 5346 5347 5348 5348
5319 5319 5319 5318 5318 5317 5317 5317 5317 5317 5317 5317 5316 5317 5317 5319 5320 5321 5321 5322 5322 5322 5321 5322 5323 5324 5326 5327 5328 5329 5330 5331 5332 5333 5334 5335 5335 5336 5337 5338 5339 5339 5339
5312 5312 5312 5311 5310 5310 5309 5309 5309 5308 5308 5308 5309 5309 5310 5311 5311 5312 5312 5313 5313 5313 5313 5313 5315 5315 5317 5318 5319 5320 5322 5323 5324 5325 5326 5327 5328 5329 5330 5330 5331 5331 5331
5305 5305 5305 5304 5304 5303 5302 5302 5302 5301 5301 5300 5301 5302 5303 5303 5304 5303 5303 5303 5303 5304 5304 5305 5306 5307 5308 5309 5311 5312 5314 5315 5317 5318 5319 5320 5321 5322 5323 5323 5324 5324 5324
5299 5300 5299 5298 5298 5297 5296 5295 5295 5294 5293 5292 5292 5293 5294 5294 5294 5295 5294 5294 5294 5295 5296 5297 5298 5299 5300 5301 5303 5305 5306 5308 5310 5311 5312 5313 5314 5315 5316 5316 5316 5317 5317
5294 5293 5294 5293 5291 5291 5290 5289 5288 5287 5286 5285 5285 5286 5287 5287 5286 5287 5287 5287 5287 5288 5289 5290 5291 5292 5293 5295 5296 5298 5300 5302 5303 5305 5306 5307 5308 5309 5310 5310 5310 5311 5311
5288 5287 5287 5286 5286 5285 5284 5283 5282 5281 5280 5279 5279 5279 5280 5280 5279 5280 5281 5282 5282 5283 5284 5285 5285 5287 5288 5289 5291 5292 5295 5296 5298 5299 5301 5302 5302 5303 5304 5304 5305 5305 5306
5282 5281 5281 5280 5280 5280 5279 5277 5276 5275 5274 5273 5273 5273 5273 5273 5274 5274 5275 5277 5277 5278 5279 5280 5281 5282 5283 5284 5286 5288 5290 5292 5294 5295 5296 5297 5298 5298 5299 5299 5300 5300 5301
5276 5275 5275 5274 5274 5273 5272 5271 5271 5270 5269 5268 5268 5268 5268 5268 5269 5270 5271 5272 5273 5274 5275 5276 5277 5278 5279 5281 5282 5284 5287 5288 5290 5291 5292 5293 5293 5294 5295 5295 5295 5296 5297
5270 5269 5269 5268 5267 5267 5267 5266 5266 5265 5265 5265 5264 5264 5264 5265 5265 5266 5267 5268 5269 5270 5271 5272 5273 5274 5276 5277 5279 5281 5283 5285 5286 5287 5288 5289 5290 5290 5291 5291 5291 5292 5293
5264 5263 5263 5262 5262 5262 5261 5261 5261 5261 5261 5261 5261 5261 5261 5261 5262 5262 5263 5264 5265 5266 5267 5269 5270 5271 5273 5275 5276 5278 5279 5281 5283 5284 5285 5286 5286 5286 5287 5287 5288 5288 5289